sat.trackr.live / text

‹ back to catalog

STARLINK-38057

NORAD 69978 · 2026-159D

PAYLOAD ACTIVE UNKNOWN

§ Identity

Operator
Country
US
Launch date
2026-07-11
Launch site
AFWTR
Launch vehicle
Mass (kg)
RCS (m²)

Purposes: comms

External: N2YO · Heavens-Above · Gunter

§ Orbital elements

Epoch: 2026-09-19T20:14:02.044608Z

Period
92.95 min
Inclination
97.2846°
Eccentricity
0.0002226
Mean motion
15.49218466 rev/d
Perigee alt
417.5 km
Apogee alt
420.5 km
Semi-major
6,797.1 km
B*
5.5245e-4
RAAN
104.6265°
Arg perigee
90.2144°
Mean anomaly
269.9362°
Rev number
1,234

§ Raw data

STARLINK-380571 69978U 26159D   26262.84307922  .00030103  00000+0  55245-3 0  99952 69978  97.2846 104.6265 0002226  90.2144 269.9362 15.49218466 12346

JSON: /api/v1/satellites/69978 · /tle

For live sub-satellite position, see the globe view (requires WebGL).

§ Visibility from observer

Set your observer location to see the next 7 days of passes ≥ 10°. The values pass through the URL so the page stays shareable.

No JS? Fill the form by hand. The geolocation button needs JavaScript.